Location: Stilling
(56.0622°N, 9.9882°E)
Time: 23:53:56
(UTC+00:00)

Cosmos 1346 Rocket - Pass Details

Date: 13 July 2020
Orbit: 533 x 545 km, 81.2° (Epoch: 14 August)

Event Time Altitude Azimuth Distance (km) Brightness Sun altitude
Exits shadow 21:27:06 10° 138° (SE) 1,768 4.8 -8.3°
Maximum altitude 21:30:02 21° 89° (E) 1,233 4.4 -8.5°
Drops below altitude 10° 21:33:04 10° 39° (NE) 1,805 5.8 -8.7°
Sets 21:35:35 0° 24° (NNE) 2,704 7.0 -8.8°
